• En España
  • Lista de países
  • Para 7 días
  • Temperatura del agua
  • Mapa Satelital
  • El tiempo en el mapa
  • Informadores
  • user-avatar
    Iniciar sesión

    Tiempo cada hora Lenino

    Hoy, 23 Julio, Lunes

    Tiempo Temperatura Precipitaciones Viento Presión Humedad
    00:00 +18°C° 0 mm 2 mps 738 mmHg 98%
    01:00 +17°C° 0 mm 2 mps 738 mmHg 98%
    02:00 +18°C° 0 mm 1 mps 738 mmHg 99%
    03:00 +18°C° 0,1 mm 1 mps 738 mmHg 98%
    04:00 +17°C° 0,1 mm 2 mps 738 mmHg 98%
    05:00 +17°C° 0,1 mm 2 mps 738 mmHg 98%
    06:00 +18°C° 0 mm 2 mps 738 mmHg 93%
    07:00 +20°C° 0 mm 2 mps 738 mmHg 89%
    08:00 +21°C° 0 mm 3 mps 739 mmHg 84%
    09:00 +21°C° 0,3 mm 3 mps 739 mmHg 83%
    10:00 +22°C° 0,3 mm 3 mps 739 mmHg 81%
    11:00 +22°C° 0,3 mm 3 mps 739 mmHg 80%
    12:00 +24°C° 0,6 mm 3 mps 739 mmHg 80%
    13:00 +24°C° 0,6 mm 3 mps 738 mmHg 81%
    14:00 +23°C° 0,6 mm 4 mps 738 mmHg 81%
    15:00 +24°C° 0,2 mm 3 mps 738 mmHg 79%
    16:00 +24°C° 0,2 mm 3 mps 738 mmHg 78%
    17:00 +24°C° 0,2 mm 3 mps 738 mmHg 76%
    18:00 +23°C° 0,1 mm 2 mps 739 mmHg 82%
    19:00 +20°C° 0,1 mm 2 mps 739 mmHg 88%
    20:00 +19°C° 0,1 mm 2 mps 739 mmHg 94%
    21:00 +18°C° 0 mm 2 mps 739 mmHg 95%
    22:00 +18°C° 0 mm 2 mps 739 mmHg 96%
    23:00 +17°C° 0 mm 2 mps 739 mmHg 97%

    Mañana, 24 Julio, Martes

    Tiempo Temperatura Precipitaciones Viento Presión Humedad
    00:00 +17°C° 0 mm 2 mps 739 mmHg 97%
    01:00 +16°C° 0 mm 2 mps 739 mmHg 98%
    02:00 +16°C° 0 mm 2 mps 739 mmHg 98%
    03:00 +16°C° 0 mm 2 mps 739 mmHg 98%
    04:00 +16°C° 0 mm 2 mps 740 mmHg 98%
    05:00 +16°C° 0 mm 2 mps 740 mmHg 98%
    06:00 +17°C° 0 mm 2 mps 740 mmHg 94%
    07:00 +18°C° 0 mm 3 mps 740 mmHg 90%
    08:00 +18°C° 0 mm 3 mps 740 mmHg 86%
    09:00 +19°C° 0 mm 3 mps 740 mmHg 82%
    10:00 +20°C° 0 mm 3 mps 740 mmHg 79%
    11:00 +21°C° 0 mm 3 mps 740 mmHg 75%
    12:00 +21°C° 0 mm 3 mps 740 mmHg 75%
    13:00 +21°C° 0 mm 3 mps 740 mmHg 75%
    14:00 +21°C° 0 mm 3 mps 740 mmHg 75%
    15:00 +21°C° 0 mm 3 mps 740 mmHg 77%
    16:00 +21°C° 0 mm 3 mps 740 mmHg 79%
    17:00 +21°C° 0 mm 3 mps 740 mmHg 81%
    18:00 +20°C° 0 mm 2 mps 740 mmHg 84%
    19:00 +19°C° 0 mm 2 mps 741 mmHg 88%
    20:00 +19°C° 0 mm 2 mps 741 mmHg 91%
    21:00 +18°C° 0 mm 2 mps 741 mmHg 93%
    22:00 +18°C° 0 mm 2 mps 741 mmHg 96%
    23:00 +17°C° 0 mm 2 mps 741 mmHg 98%

    Pasado mañana, 25 Julio, Miércoles

    Tiempo Temperatura Precipitaciones Viento Presión Humedad
    00:00 +17°C° 0 mm 2 mps 741 mmHg 98%
    01:00 +16°C° 0 mm 2 mps 741 mmHg 98%
    02:00 +16°C° 0 mm 2 mps 741 mmHg 99%
    03:00 +16°C° 0 mm 2 mps 741 mmHg 98%
    04:00 +17°C° 0 mm 2 mps 741 mmHg 98%
    05:00 +17°C° 0 mm 2 mps 741 mmHg 97%
    06:00 +18°C° 0 mm 2 mps 741 mmHg 95%
    07:00 +19°C° 0 mm 2 mps 741 mmHg 92%
    08:00 +20°C° 0 mm 2 mps 742 mmHg 90%
    09:00 +21°C° 0,1 mm 2 mps 742 mmHg 86%
    10:00 +23°C° 0,1 mm 2 mps 742 mmHg 83%
    11:00 +24°C° 0,1 mm 3 mps 742 mmHg 79%
    12:00 +25°C° 0,2 mm 3 mps 742 mmHg 77%
    13:00 +25°C° 0,2 mm 3 mps 742 mmHg 76%
    14:00 +26°C° 0,2 mm 3 mps 742 mmHg 74%
    15:00 +26°C° 0,3 mm 3 mps 742 mmHg 76%
    16:00 +26°C° 0,3 mm 2 mps 742 mmHg 78%
    17:00 +26°C° 0,3 mm 2 mps 742 mmHg 80%
    18:00 +24°C° 0,2 mm 2 mps 742 mmHg 84%
    19:00 +23°C° 0,2 mm 1 mps 742 mmHg 88%
    20:00 +21°C° 0,2 mm 1 mps 742 mmHg 92%
    21:00 +20°C° 0 mm 1 mps 742 mmHg 93%
    22:00 +20°C° 0 mm 1 mps 743 mmHg 93%
    23:00 +19°C° 0 mm 1 mps 743 mmHg 94%

    26 Julio, Jueves

    Tiempo Temperatura Precipitaciones Viento Presión Humedad
    00:00 +18°C° 0 mm 1 mps 743 mmHg 94%
    01:00 +18°C° 0 mm 1 mps 743 mmHg 95%
    02:00 +16°C° 0 mm 1 mps 743 mmHg 96%
    03:00 +16°C° 0 mm 1 mps 743 mmHg 95%
    04:00 +16°C° 0 mm 1 mps 743 mmHg 94%
    05:00 +16°C° 0 mm 2 mps 743 mmHg 94%
    06:00 +17°C° 0 mm 2 mps 743 mmHg 90%
    07:00 +18°C° 0 mm 2 mps 743 mmHg 87%
    08:00 +19°C° 0 mm 2 mps 743 mmHg 83%
    09:00 +20°C° 0 mm 2 mps 743 mmHg 82%
    10:00 +21°C° 0 mm 2 mps 743 mmHg 81%
    11:00 +23°C° 0 mm 2 mps 743 mmHg 80%
    12:00 +23°C° 0,1 mm 2 mps 743 mmHg 79%
    13:00 +24°C° 0,1 mm 2 mps 743 mmHg 79%
    14:00 +24°C° 0,1 mm 2 mps 743 mmHg 79%
    15:00 +25°C° 0,4 mm 2 mps 743 mmHg 81%
    16:00 +25°C° 0,4 mm 2 mps 743 mmHg 83%
    17:00 +25°C° 0,4 mm 1 mps 743 mmHg 85%
    18:00 +24°C° 0,5 mm 1 mps 743 mmHg 88%
    19:00 +23°C° 0,5 mm 1 mps 743 mmHg 91%
    20:00 +22°C° 0,5 mm 1 mps 743 mmHg 94%
    21:00 +21°C° 0,1 mm 1 mps 743 mmHg 95%
    22:00 +21°C° 0,1 mm 1 mps 743 mmHg 96%
    23:00 +20°C° 0,1 mm 1 mps 743 mmHg 97%

    27 Julio, Viernes

    Tiempo Temperatura Precipitaciones Viento Presión Humedad
    00:00 +20°C° 0 mm 1 mps 743 mmHg 97%
    01:00 +19°C° 0 mm 1 mps 743 mmHg 97%
    02:00 +19°C° 0 mm 1 mps 743 mmHg 98%
    03:00 +19°C° 0 mm 1 mps 743 mmHg 98%
    04:00 +19°C° 0 mm 1 mps 744 mmHg 98%
    05:00 +19°C° 0 mm 1 mps 744 mmHg 98%
    06:00 +20°C° 0 mm 2 mps 744 mmHg 95%
    07:00 +21°C° 0 mm 2 mps 744 mmHg 91%
    08:00 +23°C° 0 mm 2 mps 744 mmHg 88%
    09:00 +25°C° 0 mm 2 mps 744 mmHg 82%
    10:00 +26°C° 0 mm 2 mps 744 mmHg 75%
    11:00 +27°C° 0 mm 2 mps 744 mmHg 69%
    12:00 +28°C° 0,3 mm 2 mps 744 mmHg 69%
    13:00 +28°C° 0,3 mm 2 mps 744 mmHg 69%
    14:00 +28°C° 0,3 mm 2 mps 744 mmHg 68%
    15:00 +28°C° 0,2 mm 2 mps 744 mmHg 71%
    16:00 +28°C° 0,2 mm 2 mps 744 mmHg 74%
    17:00 +27°C° 0,2 mm 2 mps 744 mmHg 76%
    18:00 +26°C° 0,4 mm 2 mps 744 mmHg 81%
    19:00 +24°C° 0,4 mm 2 mps 744 mmHg 86%
    20:00 +23°C° 0,4 mm 2 mps 744 mmHg 91%
    21:00 +21°C° 0,2 mm 2 mps 745 mmHg 92%
    22:00 +21°C° 0,2 mm 2 mps 745 mmHg 93%
    23:00 +20°C° 0,2 mm 2 mps 745 mmHg 94%

    28 Julio, Sábado

    Tiempo Temperatura Precipitaciones Viento Presión Humedad
    00:00 +20°C° 0,5 mm 2 mps 745 mmHg 95%
    01:00 +21°C° 0,5 mm 1 mps 745 mmHg 95%
    02:00 +21°C° 0,5 mm 1 mps 745 mmHg 96%
    03:00 +21°C° 0 mm 1 mps 745 mmHg 95%
    04:00 +21°C° 0 mm 1 mps 745 mmHg 95%
    05:00 +21°C° 0 mm 1 mps 745 mmHg 95%
    06:00 +21°C° 0,1 mm 2 mps 745 mmHg 90%
    07:00 +23°C° 0,1 mm 2 mps 745 mmHg 86%
    08:00 +25°C° 0,1 mm 2 mps 745 mmHg 81%
    09:00 +26°C° 0,8 mm 2 mps 745 mmHg 76%
    10:00 +27°C° 0,8 mm 2 mps 745 mmHg 71%
    11:00 +28°C° 0,8 mm 2 mps 745 mmHg 66%
    12:00 +28°C° 1 mm 2 mps 744 mmHg 71%
    13:00 +28°C° 1 mm 2 mps 744 mmHg 76%
    14:00 +27°C° 1 mm 2 mps 744 mmHg 81%
    15:00 +27°C° 0,7 mm 2 mps 744 mmHg 83%
    16:00 +26°C° 0,7 mm 2 mps 744 mmHg 84%
    17:00 +26°C° 0,7 mm 2 mps 744 mmHg 86%
    18:00 +25°C° 0,4 mm 2 mps 744 mmHg 89%
    19:00 +24°C° 0,4 mm 2 mps 744 mmHg 92%
    20:00 +21°C° 0,4 mm 2 mps 744 mmHg 95%
    21:00 +21°C° 0 mm 2 mps 745 mmHg 96%
    22:00 +21°C° 0 mm 3 mps 745 mmHg 96%
    23:00 +20°C° 0 mm 3 mps 745 mmHg 97%
    Mostrar más